Location: Moena
(46.3667°N, 11.6500°E)
Time: 14:45:40
(UTC+00:00)

Cosmos 2333 Rocket - Pass Details

Date: 21 June 2021
Orbit: 841 x 861 km, 70.8° (Epoch: 26 July)

Event Time Altitude Azimuth Distance (km) Brightness Sun altitude
Rises 21:48:48 0° 239° (WSW) 3,425 5.3 -17.5°
Reaches altitude 10° 21:51:34 10° 250° (WSW) 2,490 4.6 -17.7°
Maximum altitude 21:56:33 30° 310° (NW) 1,497 4.1 -17.9°
Drops below altitude 10° 22:01:32 10° 11° (N) 2,491 5.6 -18.2°
Sets 22:04:19 0° 22° (NNE) 3,427 6.2 -18.4°
